Weather History for Big Bear City, CA

Change the Weather History Date:

Sunday, February 24, 2013

  Actual Average (KBUO) Record (KBUO)
Temperature  
Mean Temperature 24 °F -  
Max Temperature 32 °F 57 °F 75 °F (1999)
Min Temperature 17 °F 39 °F 33 °F (2001)
Degree Days  
Heating Degree Days 40    
Moisture  
Dew Point -5 °F    
Average Humidity 28    
Maximum Humidity 53    
Minimum Humidity 13    
Precipitation  
Precipitation 0.00 in - - ()
Sea Level Pressure  
Sea Level Pressure 30.09 in    
Wind  
Wind Speed 10 mph (NE)    
Max Wind Speed 21 mph    
Max Gust Speed 40 mph    
Visibility 10 miles    
Events      
Averages and records for this station are not official NWS values.
T = Trace of Precipitation, MM = Missing Value Source: NWS Daily Summary

Daily Weather History Graph

Daily Weather History Graph

Search for Another Location

Airport:

Trip Planner

Search our weather history database for the weather conditions in past years. The results will help you decide how hot, cold, wet, or windy it might be!

Date:

Astronomy

Feb. 24, 2013 Rise Set
Actual Time 6:21 AM PST 5:39 PM PST
Civil Twilight 5:56 AM PST 6:04 PM PST
Nautical Twilight 5:27 AM PST 6:34 PM PST
Astronomical Twilight 4:58 AM PST 7:03 PM PST
Moon 4:55 PM PST (2/24) 5:20 AM PST (2/24)
Length of Visible Light 12h 08m
Length of Day
11h 17m
Waxing Gibbous, 99% of the Moon is Illuminated
Feb 24
Waxing Gibbous
Feb 25
Full
Mar 4
Last Quarter
Mar 11
New
Mar 19
First Quarter

Hourly Weather History & Observations

Time (PST) Temp. Windchill Dew Point Humidity Pressure Visibility Wind Dir Wind Speed Gust Speed Precip Events Conditions
12:15 AM 26.6 °F 18.2 °F 3.2 °F 37% 30.02 in 10.0 mi SE 8.1 mph 19.6 mph N/A   Clear
12:35 AM 26.6 °F 16.8 °F 1.4 °F 34% 30.02 in 10.0 mi ESE 10.4 mph 19.6 mph N/A   Clear
12:55 AM 24.8 °F 14.0 °F -0.4 °F 34% 30.03 in 10.0 mi ENE 11.5 mph 25.3 mph N/A   Clear
1:15 AM 24.8 °F 14.0 °F -2.2 °F 31% 30.03 in 10.0 mi East 11.5 mph 20.7 mph N/A   Clear
1:35 AM 24.8 °F 19.1 °F -2.2 °F 31% 30.05 in 10.0 mi NE 4.6 mph 16.1 mph N/A   Mostly Cloudy
1:55 AM 23.0 °F 13.9 °F -2.2 °F 33% 30.03 in 10.0 mi NNE 8.1 mph 21.9 mph N/A   Scattered Clouds
2:15 AM 23.0 °F 13.9 °F -4.0 °F 31% 30.02 in 10.0 mi NNE 8.1 mph 18.4 mph N/A   Clear
2:35 AM 23.0 °F 11.7 °F -5.8 °F 28% 30.01 in 10.0 mi North 11.5 mph - N/A   Clear
2:55 AM 23.0 °F 11.1 °F -7.6 °F 26% 30.00 in 10.0 mi NNE 12.7 mph 23.0 mph N/A   Clear
3:15 AM 23.0 °F 11.7 °F -9.4 °F 24% 29.99 in 10.0 mi NNE 11.5 mph 21.9 mph N/A   Clear
3:35 AM 23.0 °F 12.4 °F -7.6 °F 26% 30.00 in 10.0 mi NE 10.4 mph 21.9 mph N/A   Clear
3:55 AM 23.0 °F 12.4 °F -7.6 °F 26% 30.00 in 10.0 mi NNE 10.4 mph 29.9 mph N/A   Clear
4:15 AM 23.0 °F 11.1 °F -9.4 °F 24% 30.00 in 10.0 mi North 12.7 mph 21.9 mph N/A   Clear
4:35 AM 21.2 °F 8.3 °F -7.6 °F 28% 30.00 in 10.0 mi NNE 13.8 mph 20.7 mph N/A   Clear
4:55 AM 21.2 °F 10.1 °F -5.8 °F 30% 30.00 in 10.0 mi NNE 10.4 mph 24.2 mph N/A   Clear
5:15 AM 21.2 °F 8.9 °F -5.8 °F 30% 30.00 in 10.0 mi NNE 12.7 mph 23.0 mph N/A   Clear
5:35 AM 21.2 °F 9.5 °F -7.6 °F 28% 30.01 in 10.0 mi NNE 11.5 mph 25.3 mph N/A   Clear
5:55 AM 21.2 °F 9.5 °F -7.6 °F 28% 30.02 in 10.0 mi North 11.5 mph 23.0 mph N/A   Clear
6:15 AM 21.2 °F 8.3 °F -7.6 °F 28% 30.02 in 10.0 mi NNE 13.8 mph 23.0 mph N/A   Clear
6:35 AM 21.2 °F 8.9 °F -7.6 °F 28% 30.03 in 10.0 mi NNE 12.7 mph 19.6 mph N/A   Clear
6:55 AM 23.0 °F 10.1 °F -7.6 °F 26% 30.05 in 10.0 mi NNE 15.0 mph 24.2 mph N/A   Clear
7:15 AM 23.0 °F 9.6 °F -7.6 °F 26% 30.06 in 10.0 mi NNE 16.1 mph 27.6 mph N/A   Clear
7:35 AM 23.0 °F 13.1 °F -5.8 °F 28% 30.06 in 10.0 mi NNE 9.2 mph 24.2 mph N/A   Clear
7:55 AM 26.6 °F 13.8 °F -7.6 °F 22% 30.07 in 10.0 mi NNE 17.3 mph 25.3 mph N/A   Clear
8:15 AM 26.6 °F 13.8 °F -5.8 °F 24% 30.07 in 10.0 mi NNE 17.3 mph 29.9 mph N/A   Clear
8:35 AM 26.6 °F 13.1 °F -5.8 °F 24% 30.08 in 10.0 mi North 19.6 mph 29.9 mph N/A   Clear
8:55 AM 26.6 °F 12.7 °F -5.8 °F 24% 30.09 in 10.0 mi North 20.7 mph 33.4 mph N/A   Clear
9:15 AM 28.4 °F 16.6 °F -7.6 °F 21% 30.09 in 10.0 mi NNE 16.1 mph 27.6 mph N/A   Clear
9:35 AM 28.4 °F 15.4 °F -5.8 °F 23% 30.10 in 10.0 mi NNE 19.6 mph 33.4 mph N/A   Clear
9:55 AM 28.4 °F 17.5 °F -5.8 °F 23% 30.10 in 10.0 mi NNE 13.8 mph 27.6 mph N/A   Clear
10:15 AM 28.4 °F 15.8 °F -5.8 °F 23% 30.09 in 10.0 mi NE 18.4 mph 26.5 mph N/A   Clear
10:35 AM 30.2 °F 18.1 °F -5.8 °F 21% 30.09 in 10.0 mi NE 18.4 mph 25.3 mph N/A   Clear
10:55 AM 30.2 °F 17.4 °F -7.6 °F 19% 30.09 in 10.0 mi NE 20.7 mph 32.2 mph N/A   Clear
11:15 AM 30.2 °F 18.1 °F -5.8 °F 21% 30.09 in 10.0 mi NNE 18.4 mph 34.5 mph N/A   Clear
11:35 AM 30.2 °F 17.8 °F -5.8 °F 21% 30.10 in 10.0 mi ENE 19.6 mph 40.3 mph N/A   Clear
11:55 AM 32.0 °F 22.5 °F -5.8 °F 20% 30.11 in 10.0 mi NE 12.7 mph 27.6 mph N/A   Clear
12:15 PM 32.0 °F 21.6 °F -5.8 °F 20% 30.10 in 10.0 mi NE 15.0 mph 31.1 mph N/A   Clear
12:35 PM 32.0 °F 22.5 °F -5.8 °F 20% 30.10 in 10.0 mi ENE 12.7 mph 31.1 mph N/A   Clear
12:55 PM 32.0 °F 22.5 °F -9.4 °F 17% 30.09 in 10.0 mi NE 12.7 mph 27.6 mph N/A   Clear
1:15 PM 32.0 °F 20.1 °F -9.4 °F 17% 30.08 in 10.0 mi ENE 19.6 mph 31.1 mph N/A   Clear
1:35 PM 32.0 °F 21.2 °F -11.2 °F 15% 30.08 in 10.0 mi North 16.1 mph 33.4 mph N/A   Clear
1:55 PM 32.0 °F 24.2 °F -9.4 °F 17% 30.08 in 10.0 mi NNE 9.2 mph 28.8 mph N/A   Clear
2:15 PM 32.0 °F 23.6 °F -14.8 °F 13% 30.10 in 10.0 mi NNE 10.4 mph 31.1 mph N/A   Clear
2:35 PM 32.0 °F 23.0 °F -9.4 °F 17% 30.09 in 10.0 mi North 11.5 mph 17.3 mph N/A   Clear
2:55 PM 32.0 °F 21.6 °F -13.0 °F 14% 30.09 in 10.0 mi NNE 15.0 mph 23.0 mph N/A   Clear
3:15 PM 32.0 °F 23.0 °F -11.2 °F 15% 30.09 in 10.0 mi ENE 11.5 mph 20.7 mph N/A   Clear
3:35 PM 32.0 °F 22.5 °F -13.0 °F 14% 30.10 in 10.0 mi ENE 12.7 mph 25.3 mph N/A   Clear
3:55 PM 32.0 °F 23.0 °F -11.2 °F 15% 30.10 in 10.0 mi East 11.5 mph 21.9 mph N/A   Clear
4:15 PM 32.0 °F 23.0 °F -9.4 °F 17% 30.09 in 10.0 mi East 11.5 mph - N/A   Clear
4:35 PM 32.0 °F 24.2 °F -9.4 °F 17% 30.11 in 10.0 mi NE 9.2 mph 16.1 mph N/A   Clear
4:55 PM 32.0 °F 24.8 °F -9.4 °F 17% 30.11 in 10.0 mi ENE 8.1 mph - N/A   Clear
5:15 PM 32.0 °F 25.6 °F -7.6 °F 18% 30.12 in 10.0 mi East 6.9 mph - N/A   Clear
5:35 PM 30.2 °F 25.4 °F -7.6 °F 19% 30.12 in 10.0 mi East 4.6 mph - N/A   Clear
5:55 PM 28.4 °F - -4.0 °F 25% 30.13 in 10.0 mi Calm Calm - N/A   Clear
6:15 PM 28.4 °F 24.6 °F -4.0 °F 25% 30.13 in 10.0 mi ESE 3.5 mph - N/A   Clear
6:35 PM 28.4 °F 23.3 °F -2.2 °F 27% 30.13 in 10.0 mi ESE 4.6 mph - N/A   Clear
6:55 PM 28.4 °F - -5.8 °F 23% 30.14 in 10.0 mi Calm Calm - N/A   Clear
7:15 PM 28.4 °F 24.6 °F -4.0 °F 25% 30.15 in 10.0 mi NNE 3.5 mph - N/A   Clear
7:35 PM 24.8 °F - 1.4 °F 36% 30.15 in 10.0 mi Calm Calm - N/A   Clear
7:55 PM 23.0 °F - 3.2 °F 43% 30.16 in 10.0 mi Calm Calm - N/A   Clear
8:15 PM 23.0 °F - 3.2 °F 43% 30.16 in 10.0 mi Calm Calm - N/A   Clear
8:35 PM 23.0 °F - -0.4 °F 36% 30.17 in 10.0 mi Calm Calm - N/A   Clear
8:55 PM 23.0 °F - 3.2 °F 43% 30.18 in 10.0 mi Calm Calm - N/A   Clear
9:15 PM 21.2 °F - 3.2 °F 46% 30.18 in 7.0 mi Calm Calm - N/A   Clear
9:35 PM 21.2 °F - 1.4 °F 42% 30.18 in 10.0 mi Calm Calm - N/A   Clear
9:55 PM 19.4 °F - 3.2 °F 49% 30.18 in 10.0 mi Calm Calm - N/A   Clear
10:15 PM 21.2 °F - 3.2 °F 46% 30.19 in 7.0 mi Calm Calm - N/A   Clear
10:35 PM 19.4 °F - 3.2 °F 49% 30.19 in 7.0 mi Calm Calm - N/A   Clear
10:55 PM 19.4 °F - 3.2 °F 49% 30.20 in 10.0 mi Calm Calm - N/A   Clear
11:15 PM 19.4 °F - 3.2 °F 49% 30.20 in 10.0 mi Calm Calm - N/A   Clear
11:35 PM 17.6 °F - 3.2 °F 53% 30.20 in 10.0 mi Calm Calm - N/A   Clear
11:55 PM 17.6 °F - 3.2 °F 53% 30.20 in 10.0 mi Calm Calm - N/A   Clear